TimeCDT,TemperatureF,Dew PointF,Humidity,Sea Level PressureIn,VisibilityMPH,Wind Direction,Wind SpeedMPH,Gust SpeedMPH,PrecipitationIn,Events,Conditions,WindDirDegrees,DateUTC
12:15 AM,36.1,31.1,82,29.74,10.0,South,10.4,-,N/A,,Clear,170,2014-03-14 05:15:00
12:35 AM,36.0,31.1,82,29.72,10.0,South,10.4,-,N/A,,Clear,170,2014-03-14 05:35:00
12:55 AM,36.1,31.1,82,29.71,10.0,South,10.4,-,N/A,,Clear,190,2014-03-14 05:55:00
1:15 AM,40.6,31.1,69,29.70,10.0,SSW,12.7,-,N/A,,Clear,210,2014-03-14 06:15:00
1:35 AM,44.2,30.0,57,29.69,10.0,SSW,16.1,-,N/A,,Clear,210,2014-03-14 06:35:00
1:55 AM,45.0,29.8,55,29.69,10.0,SW,16.1,-,N/A,,Clear,220,2014-03-14 06:55:00
2:15 AM,44.8,29.3,55,29.69,10.0,SW,16.1,21.9,N/A,,Clear,220,2014-03-14 07:15:00
2:35 AM,45.1,29.3,54,29.68,10.0,SW,17.3,-,N/A,,Clear,220,2014-03-14 07:35:00
2:55 AM,45.7,29.1,52,29.67,10.0,SW,20.7,25.3,N/A,,Clear,230,2014-03-14 07:55:00
3:15 AM,45.5,29.3,53,29.67,10.0,SW,19.6,-,N/A,,Clear,230,2014-03-14 08:15:00
3:35 AM,45.9,28.8,51,29.65,10.0,SW,18.4,-,N/A,,Clear,220,2014-03-14 08:35:00
3:55 AM,46.6,28.6,50,29.65,10.0,SW,18.4,-,N/A,,Clear,230,2014-03-14 08:55:00
4:15 AM,45.5,28.6,52,29.64,10.0,SW,19.6,-,N/A,,Clear,220,2014-03-14 09:15:00
4:35 AM,45.5,28.8,52,29.63,10.0,SW,19.6,-,N/A,,Clear,220,2014-03-14 09:35:00
4:55 AM,45.0,29.3,54,29.62,10.0,SW,19.6,-,N/A,,Clear,220,2014-03-14 09:55:00
5:15 AM,45.3,29.1,53,29.64,10.0,WSW,19.6,-,N/A,,Clear,240,2014-03-14 10:15:00
5:35 AM,43.7,29.3,57,29.65,10.0,SW,16.1,21.9,N/A,,Clear,230,2014-03-14 10:35:00
5:55 AM,43.0,29.1,58,29.64,10.0,SW,16.1,-,N/A,,Clear,230,2014-03-14 10:55:00
6:15 AM,42.6,29.1,59,29.64,10.0,SW,15.0,-,N/A,,Clear,230,2014-03-14 11:15:00
6:35 AM,41.4,29.1,62,29.64,10.0,SW,16.1,-,N/A,,Clear,230,2014-03-14 11:35:00
6:55 AM,41.0,29.1,63,29.64,10.0,SW,11.5,-,N/A,,Clear,230,2014-03-14 11:55:00
7:15 AM,42.4,28.4,58,29.64,10.0,WSW,16.1,20.7,N/A,,Clear,240,2014-03-14 12:15:00
7:35 AM,40.3,28.9,64,29.65,10.0,WSW,13.8,-,N/A,,Clear,250,2014-03-14 12:35:00
7:55 AM,40.3,29.1,64,29.67,10.0,West,12.7,-,N/A,,Clear,260,2014-03-14 12:55:00
8:15 AM,40.6,29.5,64,29.67,10.0,West,10.4,-,N/A,,Clear,270,2014-03-14 13:15:00
8:35 AM,41.9,31.1,66,29.69,10.0,WNW,10.4,-,N/A,,Clear,290,2014-03-14 13:35:00
8:55 AM,43.5,31.8,63,29.70,10.0,WNW,19.6,23.0,N/A,,Clear,300,2014-03-14 13:55:00
9:15 AM,44.4,32.9,64,29.72,10.0,NW,15.0,-,N/A,,Clear,310,2014-03-14 14:15:00
9:35 AM,44.6,32.9,64,29.73,10.0,NW,18.4,21.9,N/A,,Clear,310,2014-03-14 14:35:00
9:55 AM,45.1,34.0,65,29.73,10.0,NW,18.4,-,N/A,,Clear,310,2014-03-14 14:55:00
10:15 AM,46.2,34.2,63,29.74,10.0,NW,16.1,-,N/A,,Clear,310,2014-03-14 15:15:00
10:35 AM,47.7,34.7,61,29.75,10.0,NW,18.4,25.3,N/A,,Clear,310,2014-03-14 15:35:00
10:55 AM,48.9,35.6,60,29.76,10.0,NW,13.8,23.0,N/A,,Clear,310,2014-03-14 15:55:00
11:15 AM,50.2,35.8,58,29.77,10.0,WNW,20.7,25.3,N/A,,Clear,290,2014-03-14 16:15:00
11:35 AM,50.7,34.7,54,29.77,10.0,NW,21.9,32.2,N/A,,Clear,310,2014-03-14 16:35:00
11:55 AM,51.6,34.0,51,29.78,10.0,NW,23.0,38.0,N/A,,Clear,310,2014-03-14 16:55:00
12:15 PM,52.5,34.9,51,29.78,10.0,WNW,25.3,34.5,N/A,,Clear,300,2014-03-14 17:15:00
12:35 PM,52.9,33.6,48,29.79,10.0,NW,28.8,36.8,N/A,,Clear,310,2014-03-14 17:35:00
12:55 PM,52.3,34.2,50,29.80,10.0,NW,21.9,34.5,N/A,,Clear,310,2014-03-14 17:55:00
1:15 PM,52.7,36.5,54,29.81,10.0,WNW,24.2,33.4,N/A,,Clear,300,2014-03-14 18:15:00
1:35 PM,53.2,36.0,52,29.81,10.0,WNW,24.2,33.4,N/A,,Clear,300,2014-03-14 18:35:00
1:55 PM,52.7,33.6,48,29.81,10.0,WNW,29.9,36.8,N/A,,Scattered Clouds,300,2014-03-14 18:55:00
2:15 PM,53.1,33.6,48,29.81,10.0,NW,24.2,35.7,N/A,,Scattered Clouds,310,2014-03-14 19:15:00
2:35 PM,52.9,34.0,49,29.82,10.0,NW,28.8,40.3,N/A,,Scattered Clouds,310,2014-03-14 19:35:00
2:55 PM,52.7,36.1,53,29.82,10.0,NW,26.5,33.4,N/A,,Scattered Clouds,320,2014-03-14 19:55:00
3:15 PM,50.0,34.5,55,29.83,10.0,NW,23.0,28.8,N/A,,Scattered Clouds,320,2014-03-14 20:15:00
3:35 PM,50.5,34.5,54,29.84,10.0,WNW,20.7,29.9,N/A,,Mostly Cloudy,290,2014-03-14 20:35:00
3:55 PM,52.5,33.6,49,29.84,10.0,WNW,25.3,33.4,N/A,,Mostly Cloudy,300,2014-03-14 20:55:00
4:15 PM,51.6,33.6,50,29.85,10.0,NW,18.4,25.3,N/A,,Mostly Cloudy,320,2014-03-14 21:15:00
4:35 PM,49.5,33.4,54,29.85,10.0,WNW,17.3,-,N/A,,Scattered Clouds,300,2014-03-14 21:35:00
4:55 PM,48.9,34.2,57,29.86,10.0,WNW,17.3,23.0,N/A,,Clear,300,2014-03-14 21:55:00
5:15 PM,48.7,33.1,55,29.86,10.0,NW,15.0,20.7,N/A,,Scattered Clouds,310,2014-03-14 22:15:00
5:35 PM,49.1,33.3,54,29.87,10.0,NW,13.8,-,N/A,,Scattered Clouds,310,2014-03-14 22:35:00
5:55 PM,50.9,33.8,52,29.87,10.0,NW,15.0,20.7,N/A,,Scattered Clouds,310,2014-03-14 22:55:00
6:15 PM,50.5,32.2,49,29.88,10.0,NW,15.0,-,N/A,,Scattered Clouds,310,2014-03-14 23:15:00
6:35 PM,49.6,32.5,52,29.89,10.0,WNW,17.3,23.0,N/A,,Mostly Cloudy,300,2014-03-14 23:35:00
6:55 PM,46.4,33.3,60,29.90,10.0,WNW,10.4,-,N/A,,Scattered Clouds,300,2014-03-14 23:55:00
7:15 PM,43.2,32.9,67,29.90,10.0,WNW,10.4,-,N/A,,Clear,300,2014-03-15 00:15:00
7:35 PM,40.6,32.2,72,29.91,10.0,WNW,9.2,-,N/A,,Clear,290,2014-03-15 00:35:00
7:55 PM,39.4,32.0,75,29.92,10.0,WNW,9.2,-,N/A,,Clear,290,2014-03-15 00:55:00
8:15 PM,38.5,31.1,75,29.92,10.0,WNW,5.8,-,N/A,,Clear,290,2014-03-15 01:15:00
8:35 PM,38.7,32.0,77,29.93,10.0,West,6.9,-,N/A,,Clear,280,2014-03-15 01:35:00
8:55 PM,38.1,31.3,76,29.93,10.0,West,8.1,-,N/A,,Clear,280,2014-03-15 01:55:00
9:15 PM,37.9,30.9,76,29.94,10.0,WNW,5.8,-,N/A,,Clear,290,2014-03-15 02:15:00
9:35 PM,37.4,30.9,77,29.94,10.0,NW,5.8,-,N/A,,Clear,310,2014-03-15 02:35:00
9:55 PM,40.3,31.8,72,29.95,10.0,NW,6.9,-,N/A,,Clear,320,2014-03-15 02:55:00
10:15 PM,37.8,30.7,76,29.96,10.0,NW,4.6,-,N/A,,Clear,320,2014-03-15 03:15:00
10:35 PM,36.5,30.6,79,29.96,10.0,WNW,5.8,-,N/A,,Clear,300,2014-03-15 03:35:00
10:55 PM,36.5,30.2,78,29.97,10.0,West,4.6,-,N/A,,Clear,280,2014-03-15 03:55:00
11:15 PM,35.4,30.2,81,29.98,10.0,NW,5.8,-,N/A,,Clear,320,2014-03-15 04:15:00
11:35 PM,35.6,30.4,81,29.98,10.0,NW,5.8,-,N/A,,Clear,320,2014-03-15 04:35:00
11:55 PM,37.4,31.1,78,29.98,10.0,NNW,4.6,-,N/A,,Clear,330,2014-03-15 04:55:00